Darstellungsparameter: Aktuell verwendete Einstellungen:
Skalierung der Graphiken ... ?
xyx+y,   Skalierungsfaktor:      Skalierung: Modus: x, Faktor: 1
Darstellungszeitraum ... ?
Vom - - bis: - -   Zeitraum: 13.01.2021 - 17.01.2021
Min/Max/Avg-Anzeige ... ?
Zeige MMA aktuell
Zeige MMA Monat
Zeige MMA alles
Zeige --A aktuell
Zeige --A Monat
Zeige --A alles
Keine MMA-Anzeige
MMA:
Minimum Maximum Average (ber die Originaldaten)
MMA-Basis: 23.02.2003 - 18.01.2021
Quicknavigation für Darstellung... ?
Tage:      1T, 2T, 3T, 5T -1T -2T -3T -5T +1T +2T +3T +5T
Wochen: 1W, 2W, 3W -1W -2W -3W +1W +2W +3W
Monate: 1M, 3M, 6M -1M -3M -6M +1M +3M +6M
Jahre:    1J, 3J, 5J, 10J -1J -3J -5J -10J +1J +3J +5J +10J
Nutze für die Darstellung ... ?
Originaldaten oder ...
Mittelwerte Minima Maxima auf...
Stundenbasis Tagesbasis Wochenbasis
Monatsbasis Jahresbasis      Datenbasis: Mittelwerte auf Stundenbasis
Darstellen als:
Statistik (Auto) Statistik J:M      Darstellung:
Zur Graphik,    zurück zur Übersicht aller Sensoren.
 
Tabellarische Datenbersicht: ?
 
Sensor: Nr:Datum:Temp:Abs-Feuchte:Windchill:Wind:
Aussen-T/F 1 13-01-2021 00:00:00 1.93333 C 5.2 g/m*3 1.93 C 2.8 km/h
2 13-01-2021 01:00:00 1.59167 C 5.1 g/m*3 1.59 C 4.275 km/h
3 13-01-2021 02:00:00 1.7 C 5.1 g/m*3 -0.8 C 8.2 km/h
4 13-01-2021 03:00:00 1.73333 C 5 g/m*3 -0.92 C 8.75833 km/h
5 13-01-2021 04:00:00 1.63333 C 4.91 g/m*3 -0.96 C 8.475 km/h
6 13-01-2021 05:00:00 1.66667 C 4.89 g/m*3 -1.07 C 9.01667 km/h
7 13-01-2021 06:00:00 1.775 C 4.92 g/m*3 -1.04 C 9.39167 km/h
8 13-01-2021 07:00:00 1.91667 C 4.92 g/m*3 -0.92 C 9.56667 km/h
9 13-01-2021 08:00:00 1.75833 C 4.93 g/m*3 -0.61 C 7.78333 km/h
10 13-01-2021 09:00:00 1.31667 C 4.9 g/m*3 -1.66 C 9.69167 km/h
11 13-01-2021 10:00:00 1.94167 C 5.14 g/m*3 -0.63 C 8.61667 km/h
12 13-01-2021 11:00:00 2.95 C 5.35 g/m*3 0.04 C 10.75833 km/h
13 13-01-2021 12:00:00 3.74167 C 5.45 g/m*3 0.59 C 12.76667 km/h
14 13-01-2021 13:00:00 4.15833 C 5.43 g/m*3 1.3 C 11.68333 km/h
15 13-01-2021 14:00:00 4.63333 C 5.3 g/m*3 1.98 C 11.15833 km/h
16 13-01-2021 15:00:00 4.05833 C 5.12 g/m*3 1.37 C 10.76667 km/h
17 13-01-2021 16:00:00 2.99167 C 5.01 g/m*3 0.57 C 8.75833 km/h
18 13-01-2021 17:00:00 2.39167 C 4.96 g/m*3 0.71 C 6.04167 km/h
19 13-01-2021 18:00:00 1.91667 C 4.95 g/m*3 1.92 C 2.53333 km/h
20 13-01-2021 19:00:00 1.8 C 5 g/m*3 1.8 C 4.26667 km/h
21 13-01-2021 20:00:00 2.03333 C 5.12 g/m*3 2.03 C 4.4 km/h
22 13-01-2021 21:00:00 2.49167 C 5.21 g/m*3 0.5 C 6.98333 km/h
23 13-01-2021 22:00:00 3.39167 C 5.18 g/m*3 1.5 C 7.11667 km/h
24 13-01-2021 23:00:00 3.725 C 5.2 g/m*3 1.69 C 7.8 km/h
25 14-01-2021 00:00:00 4.10833 C 5.45 g/m*3 1.67 C 9.68333 km/h
Sensor: Nr:Datum:Temp:Abs-Feuchte:Windchill:Wind:
Aussen-T/F 26 14-01-2021 01:00:00 4.05 C 5.8 g/m*3 1.79 C 8.86667 km/h
27 14-01-2021 02:00:00 3.76667 C 5.77 g/m*3 1.71 C 7.925 km/h
28 14-01-2021 03:00:00 3.56667 C 5.52 g/m*3 2.01 C 6.175 km/h
29 14-01-2021 04:00:00 3.275 C 5.19 g/m*3 1.59 C 6.44167 km/h
30 14-01-2021 05:00:00 2.61667 C 4.71 g/m*3 2.62 C 3.74167 km/h
31 14-01-2021 06:00:00 2.05 C 4.72 g/m*3 2.05 C 0.66667 km/h
32 14-01-2021 07:00:00 1.51667 C 4.63 g/m*3 1.52 C 0.66667 km/h
33 14-01-2021 08:00:00 1.36667 C 4.61 g/m*3 1.37 C 0.93333 km/h
34 14-01-2021 09:00:00 1.375 C 4.72 g/m*3 1.38 C 0.13333 km/h
35 14-01-2021 10:00:00 1.90833 C 4.8 g/m*3 1.91 C 0.53333 km/h
36 14-01-2021 11:00:00 2.425 C 4.72 g/m*3 1.02 C 5.34167 km/h
37 14-01-2021 12:00:00 2.625 C 4.65 g/m*3 0.94 C 6.15 km/h
38 14-01-2021 13:00:00 2.95 C 4.69 g/m*3 1.26 C 6.3 km/h
39 14-01-2021 14:00:00 3.11667 C 4.67 g/m*3 3.12 C 3.33333 km/h
40 14-01-2021 15:00:00 3.09167 C 4.7 g/m*3 3.09 C 2.13333 km/h
41 14-01-2021 16:00:00 2.63333 C 4.77 g/m*3 2.63 C 0.13333 km/h
42 14-01-2021 17:00:00 1.36667 C 4.6 g/m*3 1.37 C 1.06667 km/h
43 14-01-2021 18:00:00 0.89167 C 4.53 g/m*3 0.89 C 1.73333 km/h
44 14-01-2021 19:00:00 0.275 C 4.42 g/m*3 0.28 C 1.06667 km/h
45 14-01-2021 20:00:00 0.15833 C 4.46 g/m*3 0.16 C 1.875 km/h
46 14-01-2021 21:00:00 0.08333 C 4.39 g/m*3 0.08 C 1.06667 km/h
47 14-01-2021 22:00:00 -0.375 C 4.25 g/m*3 -0.38 C 1.06667 km/h
48 14-01-2021 23:00:00 -0.70833 C 4.15 g/m*3 -0.71 C 2 km/h
49 15-01-2021 00:00:00 -1.05833 C 4.06 g/m*3 -1.06 C 0.8 km/h
50 15-01-2021 01:00:00 -1.55 C 3.96 g/m*3 -1.55 C 0.8 km/h
Sensor: Nr:Datum:Temp:Abs-Feuchte:Windchill:Wind:
Aussen-T/F 51 15-01-2021 02:00:00 -2.04167 C 3.82 g/m*3 -2.04 C 0.66667 km/h
52 15-01-2021 03:00:00 -2.425 C 3.77 g/m*3 -2.42 C 0.13333 km/h
53 15-01-2021 04:00:00 -2.26667 C 3.85 g/m*3 -2.27 C 0.4 km/h
54 15-01-2021 05:00:00 -1.65833 C 4 g/m*3 -1.66 C 0 km/h
55 15-01-2021 06:00:00 -1.16667 C 4.1 g/m*3 -1.17 C 0 km/h
56 15-01-2021 07:00:00 -0.81667 C 4.17 g/m*3 -0.82 C 0 km/h
57 15-01-2021 08:00:00 -0.66667 C 4.2 g/m*3 -0.67 C 0 km/h
58 15-01-2021 09:00:00 -0.28333 C 4.29 g/m*3 -0.28 C 0 km/h
59 15-01-2021 10:00:00 -0.18333 C 4.28 g/m*3 -0.18 C 0.4 km/h
60 15-01-2021 11:00:00 0.10833 C 4.17 g/m*3 0.11 C 4.14167 km/h
61 15-01-2021 12:00:00 2.05 C 4.29 g/m*3 -0.75 C 9.55 km/h
62 15-01-2021 13:00:00 2.35 C 4.43 g/m*3 -0.26 C 9.00833 km/h
63 15-01-2021 14:00:00 2.45 C 4.52 g/m*3 0.24 C 7.65 km/h
64 15-01-2021 15:00:00 2.55833 C 4.63 g/m*3 0.62 C 6.84167 km/h
65 15-01-2021 16:00:00 2.325 C 4.66 g/m*3 0.35 C 6.84167 km/h
66 15-01-2021 17:00:00 2 C 4.58 g/m*3 2 C 2.13333 km/h
67 15-01-2021 18:00:00 1.71667 C 4.58 g/m*3 1.72 C 3.34167 km/h
68 15-01-2021 19:00:00 1.51667 C 4.66 g/m*3 1.52 C 3.73333 km/h
69 15-01-2021 20:00:00 1.39167 C 4.62 g/m*3 1.39 C 4 km/h
70 15-01-2021 21:00:00 1.24167 C 4.6 g/m*3 1.24 C 3.75 km/h
71 15-01-2021 22:00:00 1.11667 C 4.55 g/m*3 1.12 C 3.74167 km/h
72 15-01-2021 23:00:00 1.075 C 4.59 g/m*3 1.08 C 4 km/h
73 16-01-2021 00:00:00 0.85833 C 4.49 g/m*3 0.86 C 2.40833 km/h
74 16-01-2021 01:00:00 0.9 C 4.14 g/m*3 -1.21 C 6.59167 km/h
75 16-01-2021 02:00:00 0.79167 C 4.05 g/m*3 0.79 C 4.4 km/h
Sensor: Nr:Datum:Temp:Abs-Feuchte:Windchill:Wind:
Aussen-T/F 76 16-01-2021 03:00:00 0.625 C 4.07 g/m*3 0.63 C 2.4 km/h
77 16-01-2021 04:00:00 0.28333 C 4.1 g/m*3 0.28 C 0.13333 km/h
78 16-01-2021 05:00:00 0.09167 C 4.16 g/m*3 0.09 C 0.93333 km/h
79 16-01-2021 06:00:00 0.14167 C 4.15 g/m*3 0.14 C 0.8 km/h
80 16-01-2021 07:00:00 -0.05 C 4.16 g/m*3 -0.05 C 0.13333 km/h
81 16-01-2021 08:00:00 -0.15 C 4.19 g/m*3 -0.15 C 0 km/h
82 16-01-2021 09:00:00 0.04167 C 4.24 g/m*3 0.04 C 0.4 km/h
83 16-01-2021 10:00:00 0.83333 C 4.19 g/m*3 0.83 C 2.53333 km/h
84 16-01-2021 11:00:00 1.28333 C 4.21 g/m*3 1.28 C 4.675 km/h
85 16-01-2021 12:00:00 1.55 C 4.13 g/m*3 -0.45 C 6.55833 km/h
86 16-01-2021 13:00:00 1.6 C 4.05 g/m*3 0.19 C 5.09167 km/h
87 16-01-2021 14:00:00 1.4 C 3.87 g/m*3 1.4 C 3.33333 km/h
88 16-01-2021 15:00:00 1.25833 C 3.79 g/m*3 1.26 C 4.01667 km/h
89 16-01-2021 16:00:00 0.84167 C 3.8 g/m*3 0.84 C 1.06667 km/h
90 16-01-2021 17:00:00 -0.04167 C 3.92 g/m*3 -0.04 C 0 km/h
91 16-01-2021 18:00:00 -0.38333 C 3.93 g/m*3 -0.38 C 0 km/h
92 16-01-2021 19:00:00 -0.18333 C 4.02 g/m*3 -0.18 C 0.4 km/h
93 16-01-2021 20:00:00 -0.00833 C 4.25 g/m*3 -0.01 C 0.93333 km/h
94 16-01-2021 21:00:00 -0.28333 C 4.37 g/m*3 -0.28 C 0.4 km/h
95 16-01-2021 22:00:00 -0.44167 C 4.39 g/m*3 -0.44 C 0.53333 km/h
96 16-01-2021 23:00:00 -0.68333 C 4.34 g/m*3 -0.68 C 0.26667 km/h
97 17-01-2021 00:00:00 -0.78333 C 4.31 g/m*3 -0.78 C 0 km/h
98 17-01-2021 01:00:00 -0.975 C 4.26 g/m*3 -0.98 C 0 km/h
99 17-01-2021 02:00:00 -1.16667 C 4.2 g/m*3 -1.17 C 0 km/h
100 17-01-2021 03:00:00 -1.2 C 4.19 g/m*3 -1.2 C 0 km/h
Sensor: Nr:Datum:Temp:Abs-Feuchte:Windchill:Wind:
Aussen-T/F 101 17-01-2021 04:00:00 -1.16667 C 4.24 g/m*3 -1.17 C 0 km/h
102 17-01-2021 05:00:00 -1.03333 C 4.28 g/m*3 -1.03 C 0 km/h
103 17-01-2021 06:00:00 -0.85833 C 4.34 g/m*3 -0.86 C 0.13333 km/h
104 17-01-2021 07:00:00 -0.75 C 4.37 g/m*3 -0.75 C 0 km/h
105 17-01-2021 08:00:00 -0.65833 C 4.4 g/m*3 -0.66 C 0 km/h
106 17-01-2021 09:00:00 -0.25 C 4.53 g/m*3 -0.25 C 0.53333 km/h
107 17-01-2021 10:00:00 0.23333 C 4.68 g/m*3 0.23 C 0.4 km/h
108 17-01-2021 11:00:00 0.68333 C 4.82 g/m*3 0.68 C 0 km/h
109 17-01-2021 12:00:00 1.075 C 4.94 g/m*3 1.08 C 0 km/h
110 17-01-2021 13:00:00 1.34167 C 5 g/m*3 1.34 C 2.26667 km/h
111 17-01-2021 14:00:00 1.39167 C 5.06 g/m*3 1.39 C 2.4 km/h
112 17-01-2021 15:00:00 1.6 C 5.14 g/m*3 1.6 C 0.13333 km/h
113 17-01-2021 16:00:00 1.50833 C 5.11 g/m*3 1.51 C 0.4 km/h
114 17-01-2021 17:00:00 1.58333 C 5.18 g/m*3 1.58 C 1.46667 km/h
115 17-01-2021 18:00:00 1.69167 C 5.22 g/m*3 1.69 C 2.4 km/h
116 17-01-2021 19:00:00 1.8 C 5.26 g/m*3 1.8 C 2.13333 km/h
117 17-01-2021 20:00:00 1.86667 C 5.29 g/m*3 1.87 C 2.66667 km/h
118 17-01-2021 21:00:00 1.95833 C 5.32 g/m*3 1.96 C 2.13333 km/h
119 17-01-2021 22:00:00 2.11667 C 5.41 g/m*3 2.12 C 1.06667 km/h
120 17-01-2021 23:00:00 2.275 C 5.49 g/m*3 2.28 C 2 km/h

Maximal/Minimal-Werte vom 23.02.2003 - 18.01.2021

Sensor Min Max Avg
Temp
(Aussen-T/F)
-16.4 °C
20-12-2009  01:30:01
40.4 °C
25-07-2019  16:20:00
11.22 °C

Die Daten stammen von einer Davis Vantage Pro 2 Wetter-Station und werden unter Linux mit der Software wview2wettercgi und aufbereitet. Alle Angaben erfolgen ohne Gewähr für ihre Vollständigkeit oder Richtigkeit.
Kontakt: Rainer Krienke krienke@uni-koblenz.de . Meine Webseiten an der Uni Koblenz oder privat.
Version: $Revision: 0.78 $